D8473 Weather Reports


Display with metric or nautical units.
time (UTC)temp
F
wind
direction
speed
MPH
gust
MPH
rain 1hr
in
rain 24hr
in
rain mn
in
humidity
%
barometer
mb
20200806062815 52 152 2.0 7.0 0.00 0.02 0.00 76 1019.9
20200806061814 52 155 4.0 10.0 0.00 0.02 0.00 77 1019.9
20200806060815 52 156 3.0 8.0 0.00 0.02 0.00 77 1019.9
20200806055809 52 183 3.0 10.0 0.00 0.02 0.00 75 1019.9
20200806054810 52 245 4.0 11.0 0.00 0.02 0.00 75 1020.0
20200806053811 52 184 4.0 10.0 0.00 0.02 0.00 76 1019.9
20200806052810 52 161 4.0 11.0 0.00 0.02 0.00 77 1020.0
20200806051815 52 161 4.0 11.0 0.00 0.02 0.00 77 1020.0
20200806050810 52 210 4.0 8.0 0.00 0.02 0.00 80 1020.0
20200806045810 52 209 4.0 10.0 0.00 0.02 0.00 80 1019.9
20200806044810 52 195 5.0 10.0 0.00 0.02 0.00 80 1019.9
20200806043811 52 151 4.0 11.0 0.00 0.02 0.00 82 1019.9
20200806042812 52 196 5.0 14.0 0.00 0.02 0.00 82 1019.8
20200806041808 51 149 5.0 10.0 0.00 0.02 0.00 83 1019.8
20200806040815 51 150 4.0 10.0 0.00 0.02 0.00 85 1020.0
20200806035808 51 128 4.0 14.0 0.00 0.02 0.00 83 1020.2
20200806034809 51 149 3.0 8.0 0.00 0.02 0.00 83 1020.1
20200806033810 51 145 3.0 9.0 0.00 0.02 0.00 83 1020.0
20200806032821 52 116 4.0 9.0 0.00 0.02 0.00 81 1020.1
20200806031819 52 244 4.0 8.0 0.00 0.02 0.00 80 1020.1
20200806030814 52 166 4.0 10.0 0.00 0.02 0.00 80 1020.1
20200806025809 52 200 3.0 8.0 0.00 0.02 0.00 80 1020.2
20200806024818 53 257 4.0 8.0 0.00 0.02 0.00 80 1020.2
20200806023804 53 244 4.0 8.0 0.00 0.02 0.00 80 1020.2
20200806022806 52 187 4.0 9.0 0.00 0.03 0.00 81 1020.3
20200806021803 52 205 5.0 12.0 0.00 0.04 0.00 80 1020.4
20200806020806 52 209 4.0 11.0 0.00 0.04 0.00 77 1020.5
20200806015809 52 199 4.0 9.0 0.00 0.04 0.00 80 1020.8
20200806014805 52 234 3.0 10.0 0.00 0.04 0.00 80 1020.9
20200806013803 51 197 4.0 10.0 0.00 0.04 0.00 82 1021.1
20200806012812 50 263 4.0 11.0 0.00 0.04 0.00 86 1021.1
20200806011801 49 220 4.0 10.0 0.00 0.04 0.00 86 1021.2
20200806010803 49 266 4.0 9.0 0.00 0.04 0.00 87 1021.4
20200806005804 49 306 4.0 9.0 0.00 0.04 0.00 90 1021.5
20200806004759 48 267 3.0 7.0 0.00 0.05 0.00 90 1021.5
20200806003759 47 235 3.0 8.0 0.00 0.05 0.00 91 1021.4
20200806002804 47 262 2.0 6.0 0.00 0.05 0.00 92 1021.5
20200806001759 46 188 4.0 9.0 0.00 0.05 0.00 91 1021.3
20200806000758 46 181 3.0 6.0 0.00 0.05 0.00 91 1021.4
20200805235758 45 187 3.0 6.0 0.00 0.05 0.00 92 1021.2
20200805234801 44 171 2.0 6.0 0.00 0.05 0.00 91 1021.2
20200805233800 44 237 2.0 6.0 0.00 0.05 0.00 90 1021.5
20200805232755 44 217 3.0 6.0 0.00 0.05 0.00 88 1021.4
20200805231802 43 191 3.0 6.0 0.00 0.05 0.00 90 1021.4
20200805230759 43 227 2.0 7.0 0.00 0.05 0.00 91 1021.3
20200805225758 42 257 2.0 5.0 0.00 0.05 0.00 90 1021.2
20200805224755 42 226 2.0 5.0 0.00 0.05 0.00 90 1021.0
20200805223755 41 250 1.0 4.0 0.00 0.05 0.00 90 1021.0
20200805222754 41 274 2.0 5.0 0.00 0.05 0.00 90 1020.9
20200805221755 41 219 2.0 5.0 0.00 0.05 0.00 90 1020.7
20200805220758 41 180 1.0 4.0 0.00 0.05 0.00 90 1020.7
20200805215754 41 210 2.0 7.0 0.00 0.05 0.00 91 1020.5
20200805214756 41 198 2.0 6.0 0.00 0.05 0.00 91 1020.6
20200805213755 41 234 1.0 5.0 0.00 0.05 0.00 90 1020.4
20200805212755 41 144 1.0 4.0 0.00 0.05 0.00 90 1020.3
20200805211758 40 0 2.0 6.0 0.00 0.05 0.00 90 1020.2
20200805210754 41 243 2.0 6.0 0.00 0.05 0.00 90 1020.0
20200805205755 41 244 2.0 5.0 0.00 0.05 0.00 90 1020.0
20200805204754 41 220 2.0 5.0 0.00 0.05 0.00 90 1019.9
20200805203754 41 142 3.0 7.0 0.00 0.05 0.00 90 1019.8
20200805202755 41 217 2.0 8.0 0.00 0.05 0.00 90 1019.8
20200805201751 41 270 1.0 4.0 0.00 0.05 0.00 91 1019.6
20200805200752 42 157 2.0 4.0 0.00 0.05 0.00 91 1019.5
20200805195753 42 280 2.0 4.0 0.00 0.05 0.00 91 1019.5
20200805194750 42 239 2.0 4.0 0.00 0.05 0.00 91 1019.2
20200805193749 42 276 2.0 4.0 0.00 0.05 0.00 91 1019.2
20200805192747 41 230 1.0 4.0 0.00 0.05 0.00 91 1019.1
20200805191746 41 275 1.0 4.0 0.00 0.05 0.00 91 1019.1
20200805190746 41 231 1.0 4.0 0.00 0.05 0.00 91 1019.2
20200805185747 42 208 1.0 4.0 0.00 0.05 0.00 91 1019.1
20200805184748 42 299 2.0 6.0 0.00 0.05 0.00 91 1019.1
20200805183747 42 217 3.0 6.0 0.00 0.05 0.00 92 1019.0
20200805182756 42 212 2.0 5.0 0.00 0.05 0.00 92 1018.9
20200805181750 41 148 2.0 5.0 0.00 0.05 0.00 92 1018.9
20200805180800 41 228 2.0 4.0 0.00 0.05 0.00 92 1018.7
20200805175759 41 215 2.0 5.0 0.00 0.05 0.00 92 1018.6
20200805174747 41 140 2.0 5.0 0.00 0.05 0.00 92 1018.4
20200805173747 42 200 1.0 5.0 0.00 0.05 0.00 92 1018.5
20200805172751 42 0 2.0 5.0 0.00 0.05 0.00 92 1018.5
20200805171748 42 183 2.0 5.0 0.00 0.05 0.00 92 1018.3
20200805170745 42 232 2.0 7.0 0.00 0.06 0.00 92 1018.4
20200805165749 42 227 3.0 7.0 0.00 0.06 0.00 92 1018.5
20200805164741 42 269 2.0 6.0 0.00 0.06 0.00 92 1018.5
20200805163750 42 270 3.0 6.0 0.00 0.06 0.00 93 1018.5
20200805162754 42 270 2.0 5.0 0.00 0.06 0.00 93 1018.6
20200805161742 42 237 2.0 7.0 0.00 0.06 0.00 93 1018.6
20200805160747 42 117 2.0 6.0 0.00 0.06 0.00 92 1018.5
20200805155742 42 0 3.0 9.0 0.00 0.06 0.00 92 1018.5
20200805154755 42 212 3.0 7.0 0.00 0.06 0.00 92 1018.5
20200805153743 42 250 3.0 8.0 0.00 0.06 0.00 92 1018.5
20200805152745 42 281 3.0 6.0 0.00 0.06 0.00 92 1018.5
20200805151742 42 235 3.0 7.0 0.00 0.06 0.00 92 1018.4
20200805150737 42 230 2.0 5.0 0.00 0.06 0.00 92 1018.2
20200805145738 42 255 2.0 7.0 0.00 0.06 0.00 92 1018.0
20200805144739 42 221 3.0 7.0 0.00 0.06 0.00 92 1017.9
20200805143744 42 304 3.0 9.0 0.00 0.06 0.00 92 1017.8
20200805142737 42 229 4.0 9.0 0.00 0.06 0.00 92 1017.9
20200805141737 42 206 4.0 9.0 0.00 0.06 0.00 92 1017.9
20200805140738 42 245 4.0 8.0 0.00 0.06 0.00 92 1017.8
20200805135738 42 250 3.0 10.0 0.00 0.06 0.06 92 1017.9
20200805134735 42 272 3.0 9.0 0.00 0.06 0.06 92 1017.8
20200805133735 42 206 3.0 8.0 0.00 0.06 0.06 92 1018.0
20200805132736 42 256 3.0 8.0 0.00 0.06 0.06 92 1018.1
20200805131742 42 215 2.0 7.0 0.00 0.06 0.06 92 1018.0
20200805130740 42 210 2.0 6.0 0.00 0.06 0.06 92 1018.1
20200805125737 41 222 2.0 5.0 0.00 0.06 0.06 92 1018.2
20200805124741 41 297 2.0 6.0 0.00 0.06 0.06 92 1018.2
20200805123745 41 198 3.0 7.0 0.00 0.06 0.06 92 1018.2
20200805122736 41 212 2.0 7.0 0.00 0.06 0.06 92 1018.2
20200805121736 41 207 3.0 9.0 0.00 0.06 0.06 92 1018.2
20200805120741 41 235 3.0 8.0 0.00 0.06 0.06 92 1018.2
20200805115733 41 216 2.0 6.0 0.00 0.06 0.06 92 1018.3
20200805114736 41 205 2.0 5.0 0.00 0.06 0.06 92 1018.3
20200805113732 41 127 2.0 6.0 0.00 0.06 0.06 91 1018.2
20200805112740 41 204 2.0 7.0 0.00 0.06 0.06 91 1018.1
20200805111733 41 211 2.0 6.0 0.00 0.06 0.06 91 1018.2
20200805110734 41 234 2.0 5.0 0.00 0.06 0.06 90 1018.2
20200805105738 42 248 2.0 7.0 0.00 0.06 0.06 90 1018.1
20200805104737 42 237 3.0 7.0 0.00 0.07 0.06 90 1018.0
20200805103734 42 241 3.0 6.0 0.00 0.07 0.06 91 1017.9
20200805102744 42 235 3.0 8.0 0.00 0.07 0.06 90 1017.8
20200805101732 42 234 3.0 6.0 0.00 0.07 0.06 90 1017.8
20200805100731 43 234 3.0 8.0 0.00 0.07 0.06 90 1017.8
20200805095731 43 292 2.0 6.0 0.00 0.07 0.06 90 1017.8
20200805094733 43 250 2.0 5.0 0.00 0.07 0.06 90 1017.6
20200805093734 44 228 2.0 6.0 0.00 0.07 0.06 90 1017.7
20200805092731 44 224 3.0 6.0 0.00 0.07 0.06 90 1017.5
20200805091734 44 275 4.0 8.0 0.00 0.07 0.06 88 1017.5
20200805090733 44 230 3.0 9.0 0.00 0.07 0.06 88 1017.6
20200805085731 44 244 2.0 6.0 0.00 0.07 0.06 88 1017.4
20200805084729 44 237 2.0 7.0 0.01 0.08 0.06 87 1017.2
20200805083729 45 250 2.0 6.0 0.02 0.08 0.06 87 1017.0
20200805082729 45 300 2.0 6.0 0.02 0.08 0.06 86 1017.0
20200805081731 45 208 4.0 9.0 0.02 0.08 0.06 86 1016.9
20200805080733 45 243 4.0 9.0 0.02 0.08 0.06 85 1016.8
20200805075731 46 179 4.0 9.0 0.02 0.07 0.05 85 1016.8
20200805074733 47 195 6.0 13.0 0.01 0.07 0.05 82 1016.8
20200805073730 48 186 4.0 15.0 0.00 0.06 0.04 80 1016.6
20200805072730 48 191 2.0 6.0 0.00 0.06 0.04 77 1016.2
20200805071730 48 0 3.0 8.0 0.00 0.06 0.04 77 1016.1
20200805070727 48 226 4.0 10.0 0.00 0.06 0.04 76 1016.0
20200805065727 49 202 4.0 12.0 0.00 0.06 0.04 75 1016.0
20200805064727 49 148 5.0 10.0 0.00 0.06 0.04 75 1016.0
20200805063741 49 194 5.0 12.0 0.00 0.06 0.04 75 1016.0